(2010 VQ) |
Classification: Aten [NEO] SPK-ID: 3550139 |
[ hide orbit diagram ]
For accurate long-term ephemerides, please instead use our Horizons system.This orbit viewer was implemented using two-body methods, and hence should not be used for determining accurate long-term trajectories (over several years or decades) or planetary encounter circumstances.
Orbital Elements at Epoch 2459000.5 (2020-May-31.0) TDB
Reference: JPL 12 (heliocentric ecliptic J2000)
Element | Value | Uncertainty (1-sigma) | Units |
e | .197994898773206 | 3.7072e-05 | |
a | .8604647818609139 | 8.2351e-05 | au |
q | .6900971444784535 | 9.7944e-05 | au |
i | .3563112559198071 | 0.00023845 | deg |
node | 28.91216761192448 | 0.031954 | deg |
peri | 198.2748502320586 | 0.11405 | deg |
M | 161.3694773889359 | 0.086245 | deg |
tp | 2458869.817640202303 (2020-Jan-21.31764020) | 0.088602 | TDB |
period | 291.5399509771011 0.80 | 0.041853 0.0001146 | d yr |
n | 1.234822187468489 | 0.00017727 | deg/d |
Q | 1.030832419243374 | 9.8656e-05 | au |
|
| | Orbit Determination Parameters
Additional Information
|
[ hide covariance matrix ]
Orbital Elements at Epoch 2455504.5 (2010-Nov-04.0) TDB
Reference: JPL 12 (heliocentric ecliptic J2000)
Element | Value | Uncertainty (1-sigma) | Units |
e | .1979356835519674 | 0.0003115 | |
q | .6909998837772684 | 0.00040343 | au |
tp | 2455367.553181866664 (2010-Jun-20.05318187) | 0.05173 | TDB |
node | 27.8419813614951 | 0.0028137 | deg |
peri | 200.6724773290768 | 0.0025485 | deg |
i | .3885848768698802 | 0.00067785 | deg |
|
| | Orbit Determination Parameters
Additional Information
|
Orbit Covariance (6×6)
|
|
e |
q |
tp |
node |
peri |
i |
e |
9.703524505512114E-8 |
-1.256718214777212E-7 |
1.610818713066534E-5 |
7.765596781735229E-7 |
6.602677228422317E-7 |
2.108283323777649E-7 |
q |
-1.256718214777212E-7 |
1.627595166908851E-7 |
-2.086193928095087E-5 |
-1.005731614179516E-6 |
-8.55102329398436E-7 |
-2.730465982642448E-7 |
tp |
1.610818713066534E-5 |
-2.086193928095087E-5 |
.002675972050290333 |
.0001295717977723223 |
.0001106145150849556 |
3.50083664101009E-5 |
node |
7.765596781735229E-7 |
-1.005731614179516E-6 |
.0001295717977723223 |
7.917132878159949E-6 |
4.143396642439482E-6 |
1.734784106824564E-6 |
peri |
6.602677228422317E-7 |
-8.55102329398436E-7 |
.0001106145150849556 |
4.143396642439482E-6 |
6.494800176062358E-6 |
1.395712299121985E-6 |
i |
2.108283323777649E-7 |
-2.730465982642448E-7 |
3.50083664101009E-5 |
1.734784106824564E-6 |
1.395712299121985E-6 |
4.594829970137972E-7 |
|
Physical Parameter Table
Parameter |
Symbol |
Value |
Units |
Sigma |
Reference |
Notes |
absolute magnitude |
H |
27.7 |
|
n/a |
MPO186458 |
|
|
[ show close-approach data ]
|